Change the Weather History Date:

Tuesday, February 18, 2014

  Actual Average Record
Temperature  
Mean Temperature 49 °F 45 °F  
Max Temperature 67 °F 56 °F 75 °F (1911)
Min Temperature 31 °F 35 °F 1 °F (1958)
Degree Days  
Heating Degree Days 16 20  
Month to date heating degree days 431 392  
Since 1 July heating degree days 2642 2437  
Cooling Degree Days 0 0  
Month to date cooling degree days 0 0  
Year to date cooling degree days 0 0  
Moisture  
Dew Point 36 °F    
Average Humidity 64    
Maximum Humidity 100    
Minimum Humidity 27    
Precipitation  
Precipitation 0.17 in 0.17 in 2.34 in (1940)
Month to date precipitation 4.06 3.08  
Year to date precipitation 6.46 7.99  
Snow  
Snow 0.00 in 0.00 in - ()
Month to date snowfall 7.2 0.4  
Since 1 July snowfall 8.4 2.4  
Snow Depth 0.00 in    
Sea Level Pressure  
Sea Level Pressure 30.16 in    
Wind  
Wind Speed 3 mph (South)    
Max Wind Speed 17 mph    
Max Gust Speed 24 mph    
Visibility 5 miles    
Events Fog , Rain , Thunderstorm    
T = Trace of Precipitation, MM = Missing Value Source: NWS Daily Summary

Daily Weather History Graph

Daily Weather History Graph

Search for Another Location

Airport or City:

Trip Planner

Search our weather history database for the weather conditions in past years. The results will help you decide how hot, cold, wet, or windy it might be!

Date:

Astronomy

Feb. 18, 2014 Rise Set
Actual Time 7:23 AM EST 6:26 PM EST
Civil Twilight 6:57 AM EST 6:52 PM EST
Nautical Twilight 6:28 AM EST 7:21 PM EST
Astronomical Twilight 5:58 AM EST 7:51 PM EST
Moon 10:08 PM EST (2/18) 9:04 AM EST (2/18)
Length of Visible Light 11h 54m
Length of Day
11h 02m
Waning Gibbous, 87% of the Moon is Illuminated
Feb 18
Waning Gibbous
Feb 22
Last Quarter
Mar 1
New
Mar 8
First Quarter
Mar 16
Full

Hourly Weather History & Observations

Time (EST) Temp. Windchill Dew Point Humidity Pressure Visibility Wind Dir Wind Speed Gust Speed Precip Events Conditions
12:53 AM 48.9 °F - 39.9 °F 71% 30.15 in 10.0 mi North 6.9 mph - N/A   Clear
1:53 AM 46.0 °F 44.8 °F 36.0 °F 68% 30.16 in 10.0 mi East 3.5 mph - N/A   Clear
2:53 AM 39.0 °F - 37.0 °F 93% 30.17 in 5.0 mi Calm Calm - N/A   Clear
3:51 AM 37.4 °F - 37.4 °F 100% 30.17 in 1.8 mi Calm Calm - N/A   Clear
3:53 AM 37.0 °F - 36.0 °F 96% 30.18 in 1.5 mi Calm Calm - N/A   Clear
3:57 AM 37.0 °F - 36.0 °F 96% 30.18 in 0.8 mi Calm Calm - N/A   Clear
4:09 AM 37.0 °F - 35.1 °F 93% 30.18 in 0.2 mi Calm Calm - N/A Fog Fog
4:27 AM 37.0 °F - 35.1 °F 93% 30.18 in 0.8 mi Calm Calm - N/A   Mist
4:45 AM 37.0 °F - 35.1 °F 93% 30.18 in 0.8 mi Calm Calm - N/A   Clear
4:53 AM 36.0 °F - 35.1 °F 97% 30.19 in 0.5 mi Calm Calm - N/A Fog Fog
5:01 AM 36.0 °F - 35.1 °F 97% 30.19 in 1.2 mi Calm Calm - N/A   Partly Cloudy
5:03 AM 36.0 °F - 35.1 °F 97% 30.19 in 2.0 mi Calm Calm - N/A   Partly Cloudy
5:14 AM 36.0 °F - 34.0 °F 93% 30.19 in 1.2 mi Calm Calm - N/A   Partly Cloudy
5:26 AM 35.1 °F - 34.0 °F 96% 30.19 in 0.5 mi Calm Calm - N/A Fog Fog
5:35 AM 34.0 °F 31.0 °F 33.1 °F 96% 30.20 in 0.2 mi NW 3.5 mph - N/A Fog Fog
5:44 AM 33.1 °F - 32.0 °F 96% 30.20 in 1.0 mi Calm Calm - N/A   Scattered Clouds
5:53 AM 34.0 °F - 33.1 °F 96% 30.20 in 0.5 mi Calm Calm - N/A Fog Fog
6:02 AM 34.0 °F - 33.1 °F 96% 30.21 in 2.0 mi Calm Calm - N/A   Scattered Clouds
6:22 AM 33.1 °F - 32.0 °F 96% 30.20 in 3.0 mi Calm Calm - N/A   Partly Cloudy
6:49 AM 33.8 °F - 32.0 °F 93% 30.21 in 0.5 mi Calm Calm - N/A Fog Fog
6:53 AM 33.1 °F - 32.0 °F 96% 30.22 in 0.5 mi Calm Calm - N/A Fog Fog
7:41 AM 32.0 °F - 30.0 °F 92% 30.23 in 2.0 mi Calm Calm - N/A Fog Patches of Fog
7:51 AM 32.0 °F - 30.2 °F 93% 30.23 in 1.0 mi Calm Calm - N/A Fog Patches of Fog
7:53 AM 32.0 °F - 30.9 °F 96% 30.24 in 1.0 mi Calm Calm - N/A Fog Patches of Fog
8:02 AM 32.0 °F - 30.0 °F 92% 30.23 in 0.8 mi Calm Calm - N/A Fog Patches of Fog
8:16 AM 32.0 °F 28.7 °F 30.9 °F 96% 30.24 in 1.0 mi NNW 3.5 mph - N/A Fog Patches of Fog
8:30 AM 34.0 °F - 33.1 °F 96% 30.24 in 2.0 mi Calm Calm - N/A Fog Patches of Fog
8:43 AM 35.1 °F - 35.1 °F 100% 30.24 in 7.0 mi Calm Calm - N/A Fog Patches of Fog
8:53 AM 37.0 °F - 36.0 °F 96% 30.25 in 10.0 mi Calm Calm - N/A   Scattered Clouds
9:53 AM 46.0 °F - 39.9 °F 79% 30.25 in 10.0 mi Calm Calm - N/A   Scattered Clouds
10:53 AM 52.0 °F - 37.0 °F 57% 30.24 in 10.0 mi Variable 3.5 mph - N/A   Scattered Clouds
11:53 AM 55.0 °F - 32.0 °F 42% 30.23 in 10.0 mi Variable 4.6 mph - N/A   Scattered Clouds
12:53 PM 59.0 °F - 28.0 °F 31% 30.19 in 10.0 mi Variable 3.5 mph - N/A   Scattered Clouds
1:53 PM 61.0 °F - 27.0 °F 27% 30.16 in 10.0 mi Calm Calm - N/A   Mostly Cloudy
2:53 PM 63.0 °F - 28.0 °F 27% 30.13 in 10.0 mi Calm Calm - N/A   Mostly Cloudy
3:53 PM 64.9 °F - 32.0 °F 29% 30.11 in 10.0 mi SSW 6.9 mph - N/A   Mostly Cloudy
4:53 PM 66.0 °F - 33.1 °F 29% 30.08 in 10.0 mi South 6.9 mph - N/A   Mostly Cloudy
5:53 PM 66.0 °F - 37.0 °F 34% 30.06 in 10.0 mi SSE 4.6 mph - N/A   Mostly Cloudy
6:53 PM 63.0 °F - 37.9 °F 40% 30.05 in 10.0 mi South 4.6 mph - N/A   Mostly Cloudy
7:53 PM 61.0 °F - 37.9 °F 42% 30.03 in 10.0 mi Calm Calm - N/A   Mostly Cloudy
8:53 PM 57.9 °F - 39.9 °F 51% 30.02 in 10.0 mi Calm Calm - N/A   Overcast
9:53 PM 61.0 °F - 42.1 °F 50% 30.01 in 10.0 mi South 8.1 mph - N/A   Overcast
10:26 PM 62.1 °F - 46.0 °F 56% 30.00 in 10.0 mi South 10.4 mph - N/A Thunderstorm Thunderstorm
10:53 PM 60.1 °F - 51.1 °F 72% 30.01 in 3.0 mi SW 9.2 mph - 0.03 in Rain , Thunderstorm Thunderstorms and Rain
11:25 PM 60.1 °F - 55.0 °F 83% 29.99 in 5.0 mi SSW 16.1 mph 25.3 mph 0.14 in Rain Rain
11:41 PM 57.9 °F - 55.0 °F 90% 30.00 in 9.0 mi WSW 5.8 mph - 0.14 in Rain Light Rain
11:53 PM 57.0 °F - 54.0 °F 89% 30.00 in 10.0 mi SE 4.6 mph - 0.14 in   Mostly Cloudy